Regional Weather Roundup
Issued by NWS

Home | Current Version | Previous Version | Graphics & Text | Print | Product List | Glossary On
Versions: 1 2 3 4 5 6 7 8 9 10 11 12 13 14 15 16 17 18 19 20 21 22 23 24 25 26 27 28 29 30 31 32 33 34 35 36 37 38 39 40 41 42 43 44 45 46 47 48 49 50
491
ASUS43 KMPX 221401
RWRMN
WEATHER ROUNDUP FOR MINNESOTA
NATIONAL WEATHER SERVICE TWIN CITIES/CHANHASSEN MN
900 AM CDT WED MAR 22 2017


NOTE: "FAIR" INDICATES FEW OR NO CLOUDS BELOW 12,000 FEET WITH NO
SIGNIFICANT WEATHER AND/OR OBSTRUCTIONS TO VISIBILITY. N/A MEANS
CURRENT SKY AND/OR WEATHER CONDITIONS ARE NOT AVAILABLE.

MNZ060>063-068>070-221500-
   Twin Cities Metro

CITY           SKY/WX    TMP DP  RH WIND       PRES   REMARKS
TWIN CITIES    MOSUNNY   25   8  48 SE9       30.55F WCI  15
ST PAUL        SUNNY     25   9  50 SE9       30.58S WCI  15
CRYSTAL        SUNNY     25   7  46 SE7       30.54F WCI  17
BLAINE         SUNNY     25  10  54 E7        30.55S WCI  17
LAKEVILLE      SUNNY     23  12  63 SE10      30.54S WCI  12
EDEN PRAIRIE   SUNNY     26  10  50 SE8       30.54S WCI  18
SOUTH ST PAUL  SUNNY     26   9  48 SE6       30.56F WCI  19
LAKE ELMO      FAIR      27  12  54 SE8       30.57S WCI  18
$$
MNZ001>005-007-008-013>017-022>024-027-028-221500-
   Northwest Minnesota

CITY           SKY/WX    TMP DP  RH WIND       PRES   REMARKS
BEMIDJI        CLOUDY    18   5  57 SE13      30.45F WCI   4
HALLOCK        CLOUDY    21  10  63 SE15      30.42F WCI   8
ROSEAU         CLOUDY    19   7  58 S15       30.45F WCI   5
WARROAD        MOSUNNY   19   7  58 SE12      30.46F WCI   7
THIEF RVR FALL CLOUDY    20   6  55 SE14G21   30.44F WCI   7
CROOKSTON      CLOUDY    21   9  58 SE17      30.43F WCI   7
FOSSTON        MOSUNNY   19   5  53 SE10      30.43F WCI   8
DETROIT LAKES  CLOUDY    23   9  54 SE15      30.44S WCI  10
MOORHEAD       CLOUDY    23   9  54 SE16G23   30.43F WCI  10
PARK RAPIDS    SUNNY     20   2  45 SE14      30.45F WCI   7
MAHNOMEN       FAIR      21   4  47 SE13      30.42F WCI   9
$$
MNZ006-009>011-018-025>026-221500-
   North Central Minnesota

CITY           SKY/WX    TMP DP  RH WIND       PRES   REMARKS
BAUDETTE       CLOUDY    16   5  62 SE8       30.48S WCI   5
FLAG ISLAND    CLOUDY    12   5  73 S15       30.48S WCI  -4
INTL FALLS     CLOUDY    13   2  61 SE7       30.51F WCI   3
WASKISH        MOSUNNY   18   7  62 SE7       30.48S WCI   8
BIG FORK       CLOUDY    16   1  53 SE9       30.50S WCI   4
LONGVILLE      SUNNY     18   7  62 SE7       30.50S WCI   8
GRAND RAPIDS   CLOUDY    16   4  59 SE8       30.52F WCI   5
CRANE LAKE     SUNNY     10   3  72 SE5       30.56F WCI   2
ORR            SUNNY     14  -2  48 CALM      30.49S
COOK           CLOUDY    14   0  52 SE6       30.52F WCI   5
WALKER         FAIR      17   4  56 SE7       30.48F WCI   7
$$
MNZ012-019>021-037-221500-
   Northeast Minnesota

CITY           SKY/WX    TMP DP  RH WIND       PRES   REMARKS
DULUTH         SUNNY     21  12  68 SE14      30.52S WCI   8
ELY            CLOUDY    12   1  62 CALM      30.52F
HIBBING        CLOUDY    15   3  59 SE7       30.52F WCI   5
EVELETH        CLOUDY    16   0  49 SE3       30.53F
DULUTH HARBOR  SUNNY     25   9  50 CALM      30.59F
TWO HARBORS    SUNNY     23  12  63 E3        30.54S
SILVER BAY     CLOUDY    18   7  62 CALM      30.54F
GRAND MARAIS     N/A     20  -3  36 E6        30.62S WCI  12
G MARAIS ARPRT SUNNY     10  -8  44 CALM      30.51S
$$
MNZ029>031-032-039>041-046>048-054>057-064-221500-
   West Central Minnesota

CITY           SKY/WX    TMP DP  RH WIND       PRES   REMARKS
FERGUS FALLS   CLOUDY    23   7  50 SE17      30.48F WCI   9
WHEATON        CLOUDY    23  12  63 SE18      30.45F WCI   9
MORRIS         CLOUDY    25  12  58 SE20      30.44S WCI  11
ALEXANDRIA     SUNNY     21   7  54 SE12      30.47S WCI   9
ELBOW LAKE     CLOUDY    23   8  52 SE13G21   30.45S WCI  11
WADENA         CLOUDY    19   7  58 SE14      30.46F WCI   6
GLENWOOD       SUNNY     21  10  63 SE12      30.47S WCI   9
APPLETON       CLOUDY    25  10  54 SE14      30.45S WCI  13
BENSON         CLOUDY    28   9  43 S14G22    30.47F WCI  17
ORTONVILLE     CLOUDY    23  12  63 SE15      30.43F WCI  10
MADISON        CLOUDY    27  18  69 SE16      30.45F WCI  14
WILLMAR        FAIR      27  12  54 SE17G23   30.49S WCI  14
$$
MNZ033>034-036-042>043-049>051-058-059-221500-
   Central Minnesota

CITY           SKY/WX    TMP DP  RH WIND       PRES   REMARKS
ST CLOUD       SUNNY     21   7  54 SE9       30.52F WCI  11
SAUK CENTRE    FAIR      22   8  55 SE9       30.49S WCI  11
PAYNESVILLE      N/A     24   9  52 SE12      30.49F WCI  13
AITKIN         SUNNY     21   7  53 SE7       30.51S WCI  13
PINE RIVER     SUNNY     18   9  68 SE12      30.52F WCI   5
BRAINERD       SUNNY     19   7  59 SE10      30.52R WCI   7
STAPLES        SUNNY     18   7  62 SE7       30.48F WCI   8
LONG PRAIRIE   FAIR      21   7  53 E12       30.49S WCI   9
LITTLE FALLS   SUNNY     23   7  50 SE12      30.51F WCI  12
LITCHFIELD     SUNNY     25  12  58 SE14      30.50S WCI  13
BUFFALO        SUNNY     24   9  53 E8        30.54F WCI  15
MAPLE LAKE     SUNNY     26  13  58 SE7       30.53F WCI  18
HUTCHINSON     CLOUDY    26  13  59 E12       30.51S WCI  15
$$
MNZ037-044-045-052-053-221500-
   East Central Minnesota

CITY           SKY/WX    TMP DP  RH WIND       PRES   REMARKS
PRINCETON      SUNNY     23   9  54 SE7       30.54F WCI  15
MORA           SUNNY     21   9  58 SE5       30.56S WCI  15
CAMBRIDGE      SUNNY     25  10  54 SE8       30.54S WCI  16
RUSH CITY      SUNNY     22   7  53 SE6       30.56S WCI  14
MOOSE LAKE     SUNNY     21   7  53 CALM      30.53S
HINCKLEY       FAIR      23   9  54 SE5       30.55S WCI  17
CLOQUET        SUNNY     19   5  53 SE7       30.53S WCI  10
MCGREGOR       SUNNY     21  10  63 SE7       30.54R WCI  13
$$
MNZ071>073-080-081-089-090-097-098-221500-
   Southwest Minnesota

CITY           SKY/WX    TMP DP  RH WIND       PRES   REMARKS
MONTEVIDEO     CLOUDY    25  14  63 S16       30.48S WCI  12
GRANITE FALLS  CLOUDY    26  14  60 E14G20    30.49R WCI  15
CANBY          CLOUDY    26  17  68 E13       30.45S WCI  15
MARSHALL       CLOUDY    24  16  71 SE13      30.46R WCI  12
REDWOOD FALLS  CLOUDY    26  11  52 SE14      30.48F WCI  14
OLIVIA         SUNNY     27  14  59 SE16      30.48S WCI  14
PIPESTONE      CLOUDY    27  10  50 SE17      30.39S WCI  14
WINDOM         CLOUDY    27  16  63 SE13      30.45R WCI  16
WORTHINGTON    CLOUDY    26  16  65 SE16      30.42S WCI  14
JACKSON        CLOUDY    27  14  59 SE17      30.46R WCI  14
TRACY          CLOUDY    27  18  69 SE12G18   30.44S WCI  16
SLAYTON        CLOUDY    25  16  69 SE16      30.42S WCI  12
$$
MNZ065>067-074>077-082>085-091>093-221500-
   South Central Minnesota

CITY           SKY/WX    TMP DP  RH WIND       PRES   REMARKS
NEW ULM        SUNNY     25  10  54 SE13      30.50R WCI  13
ST JAMES       SUNNY     25  18  74 E14       30.50R WCI  13
FAIRMONT       SUNNY     26  16  65 SE17      30.49R WCI  13
GLENCOE        SUNNY     27  17  65 E13       30.51F WCI  16
FARIBAULT      SUNNY     25  12  58 E13G18    30.53S WCI  13
OWATONNA       SUNNY     25  10  54 E17G23    30.51F WCI  11
WASECA         SUNNY     27  14  59 E15       30.52S WCI  15
ALBERT LEA     SUNNY     25  10  54 SE14G20   30.50R WCI  13
$$
MNZ078>079-086>088-094>096-221500-
   Southeast Minnesota

CITY           SKY/WX    TMP DP  RH WIND       PRES   REMARKS
ROCHESTER      SUNNY     23   9  55 SE16G24   30.53R WCI  10
RED WING       SUNNY     27   7  43 SE10      30.56S WCI  17
STANTON        SUNNY     27  10  48 SE9G16    30.54S WCI  17
DODGE CENTER   MOSUNNY   25  10  54 SE17      30.52R WCI  11
WINONA           N/A     30  12  47 SE10      30.60R WCI  21
AUSTIN         SUNNY     25  10  54 E16       30.51F WCI  12
PRESTON        SUNNY     23   7  49 SE14      30.54R WCI  11
$$
ABBREVIATIONS USED IN REMARKS
   TC - TEMPERATURES IN CELSIUS
  WCI - WIND CHILL INDEX
   HX - HEAT INDEX
  VSB - VISIBILITY
$$




USA.gov is the U.S. government's official web portal to all federal, state and local government web resources and services.